#timestamp,LO_Frequency,Hit,StdDev 
1698386415.8,286046999.9,N
1698386435.6,286046998.3,N
1698386455.4,286046999.5,N
1698386475.3,286046999.6,N
1698386495.1,286046999.5,N
1698386515.9,286046996.9,N
1698386535.7,286046999.1,N
1698386555.5,286046998.8,N
1698386575.4,286046998.5,N
1698386595.2,286046999.2,N
1698386615.0,286047001.1,N
1698386615.9,286047001.1,N
1698386635.8,286047001.2,N
1698386655.6,286046998.9,N
1698386675.5,286046998.1,N
1698386695.3,286046998.7,N
1698386715.1,286046999.3,N
1698386735.9,286046998.9,N
1698386755.7,286047000.9,N
1698386775.5,286047000.5,N
1698386795.4,286046998.5,N
1698386815.2,286047000.7,N
1698386835.1,286047000.8,N
1698386836.0,286047000.8,N
1698386855.8,286046998.9,N
1698386875.6,286047001.2,N
1698386895.5,286046998.2,N
1698386915.3,286047000.9,N
1698386935.1,286047000.7,N
1698386955.9,286046998.2,N
1698386975.7,286046998.3,N
1698386995.6,286046999.2,N
1698387015.4,286046999.0,N
1698387035.2,286046999.5,N
1698387055.1,286046999.1,N
1698387056.0,286046999.1,N
1698387075.8,286047001.0,N
1698387095.6,286047000.4,N
1698387115.5,286047000.9,N
1698387135.3,286047000.3,N
1698387155.2,286047000.8,N
1698387175.9,286046998.9,N
1698387195.7,286046999.3,N
1698387215.6,286046999.2,N
1698387235.4,286046996.5,Y
1698387255.2,286046996.7,P
1698387275.1,286046999.5,N
1698387276.0,286046999.5,N
1698387295.8,286046999.4,N
1698387315.7,286046996.7,N
1698387335.5,286046997.4,N
1698387355.3,286046999.6,N
1698387375.2,286046998.8,N
1698387395.0,286046998.8,N
1698387395.9,286046998.8,N
1698387415.8,286046999.3,N
1698387435.6,286046998.8,N
1698387455.4,286046998.5,N
1698387475.3,286047000.3,N
1698387495.1,286047000.5,N
1698387515.9,286047000.9,N
1698387535.7,286047002.7,N
1698387555.5,286047000.9,N
1698387575.4,286046998.5,N
1698387595.2,286047000.6,N
1698387615.0,286047001.0,N
1698387615.9,286047001.0,N
1698387635.8,286047001.1,N
1698387655.6,286047000.4,N
1698387675.5,286046998.5,N
1698387695.8,286046998.5,N
1698387715.6,286046998.2,N
1698387735.5,286047001.0,N
1698387755.3,286047001.0,N
1698387775.1,286047000.6,N
1698387795.9,286047000.5,N
1698387815.7,286047002.2,N
1698387835.5,286047001.4,N
1698387855.4,286047002.3,N
1698387875.2,286047002.2,N
1698387895.1,286047003.7,N
1698387896.0,286047003.7,N
1698387915.8,286047003.8,N
1698387935.6,286047003.1,N
1698387955.5,286047003.0,N
1698387975.3,286047004.6,N
1698387995.1,286047004.9,N
1698388015.9,286047007.6,Y
1698388035.7,286047003.5,P
1698388055.6,286047001.7,N
1698388075.4,286047004.1,P
1698388095.2,286047002.9,N
1698388115.1,286047006.0,Y
1698388116.0,286047006.0,P
1698388135.8,286047002.0,N
1698388155.6,286047004.0,N
1698388175.5,286047003.5,N
1698388195.3,286047003.5,N
1698388215.2,286047003.4,N
1698388265.9,286047006.0,E
1698388275.9,286047001.3,N
1698388295.7,286047001.2,P
1698388315.5,286046998.3,P
1698388335.4,286046999.5,N
1698388355.2,286046997.0,N
1698388375.0,286046996.6,N
1698388375.9,286046996.6,N
1698388395.8,286046999.2,N
1698388415.6,286046999.1,N
1698388435.5,286046998.4,N
1698388455.3,286046998.6,N
1698388475.1,286046999.5,N
1698388495.9,286046998.7,N
1698388515.7,286046999.4,N
1698388535.6,286046998.3,N
1698388555.4,286046998.4,N
1698388575.2,286047000.6,N
1698388595.1,286047000.7,N
1698388596.0,286047000.7,N
1698388615.8,286046999.0,N
1698388635.6,286047001.0,N
1698388655.5,286047000.8,N
1698388675.3,286046998.6,N
1698388695.2,286046998.2,N
1698388715.9,286046999.1,N
1698388735.7,286046998.1,N
1698388755.6,286046998.7,N
1698388775.4,286046998.1,N
1698388795.2,286046998.9,N
1698388815.1,286046998.5,N
1698388816.0,286046998.5,N
1698388835.8,286046998.2,N
1698388855.7,286047000.0,N
1698388875.5,286046998.1,N
1698388895.3,286046998.3,N
1698388915.2,286046998.7,N
1698388935.0,286047000.9,N
1698388935.9,286047000.9,N
1698388955.8,286047000.3,N
1698388975.6,286047000.6,N
1698388995.4,286046999.8,N
1698389015.3,286047000.0,N
1698389035.1,286047002.3,N
1698389055.8,286047002.7,N
1698389075.7,286047002.6,N
1698389095.5,286047000.0,N
1698389115.4,286047000.4,N
1698389135.2,286047002.7,N
1698389155.0,286046999.9,N
1698389155.9,286046999.9,N
1698389175.8,286047000.3,N
1698389195.6,286047000.0,N
1698389215.5,286047000.2,N
1698389235.3,286046999.8,N
1698389255.1,286047002.8,N
1698389275.9,286047001.4,N
1698389295.7,286046999.8,N
1698389315.5,286047002.4,N
1698389335.4,286047001.9,N
1698389355.2,286047002.5,N
1698389375.1,286047001.8,N
1698389376.0,286047001.8,N
1698389395.8,286047001.9,N
1698389415.6,286047003.9,N
1698389435.5,286047003.9,N
1698389455.3,286047001.3,N
1698389475.2,286047004.2,Y
1698389495.9,286047002.6,P
1698389515.7,286046999.7,N
1698389535.6,286047002.5,N
1698389555.4,286047001.5,N
1698389575.2,286047000.0,N
1698389595.1,286047000.1,N
1698389596.0,286047000.1,N
1698389615.8,286047002.4,N
1698389635.7,286047002.2,N
1698389655.5,286047002.8,N
1698389675.3,286047001.6,N
1698389695.2,286047000.0,N
1698389715.0,286047002.7,N
1698389715.9,286047002.7,N
1698389735.7,286047002.0,N
1698389755.9,286047001.7,N
1698389775.7,286047001.5,N
1698389795.6,286047002.4,N
1698389815.4,286047002.5,N
1698389835.2,286046999.7,N
1698389855.1,286047001.5,N
1698389856.0,286047001.5,N
1698389875.8,286047002.5,N
1698389895.7,286047002.4,N
1698389915.5,286047002.1,N
1698389935.3,286047001.5,N
1698389955.2,286047004.4,Y
1698389975.0,286047001.6,P
1698389975.9,286047001.6,P
1698389995.8,286047001.5,P
